Location: Colonia Mina de C?rbuni
(46.1667°N, 22.7167°E)
Time: 07:20:29
(UTC+00:00)

Tiros 1 - Pass Details

Date: 26 April 2024
Orbit: 624 x 657 km, 48.4° (Epoch: 26 May)

Event Time Altitude Azimuth Distance (km) Brightness Sun altitude
Exits shadow 00:57:02 34° 284° (WNW) 1,037 7.9 -21.3°
Maximum altitude 00:59:00 82° 202° (SSW) 637 6.9 -21.1°
Drops below altitude 10° 01:03:35 10° 113° (ESE) 1,992 9.9 -20.6°
Sets 01:05:53 0° 113° (ESE) 2,895 10.7 -20.3°
